Location: Unspecified
(33.6682°S, 0.0000°E)
Time: 20:53:02
(UTC+00:00)

Vanguard 3 - All Passes

Search period start: 17 June 2019 00:00
Search period end: 27 June 2019 00:00
Orbit: 508 x 3263 km, 33.3° (Epoch: 16 June)

Date Brightness Start Highest point End Pass type
(mag) Time Alt. Az. Time Alt. Az. Time Alt. Az.
17 Jun - 00:04:47 10° NW 00:14:15 56° NNE 00:30:23 10° ESE visible
17 Jun - 02:16:01 10° WNW 02:29:03 86° N 02:49:01 10° E visible
17 Jun - 04:29:29 10° W 04:46:24 85° NNW 05:06:30 10° ENE visible
17 Jun - 06:44:44 10° WSW 07:03:28 58° NNW 07:20:43 10° NE daylight
17 Jun - 09:03:55 10° W 09:17:53 25° NW 09:29:35 10° N daylight
17 Jun - 22:52:27 10° NNW 22:59:55 35° NE 23:12:04 10° E night (unlit)
18 Jun - 01:02:05 10° WNW 01:12:51 77° NNE 01:31:04 10° E visible
18 Jun - 03:14:29 10° W 03:29:04 89° N 03:49:28 10° E visible
18 Jun - 05:28:34 10° WSW 05:46:28 72° NNW 06:05:41 10° ENE visible
18 Jun - 07:45:06 10° W 08:02:20 39° NW 08:17:30 10° NNE daylight
18 Jun - 21:41:40 10° NNE 21:46:28 17° NE 21:52:55 10° E night (unlit)
18 Jun - 23:48:51 10° NW 23:57:36 59° NNE 00:13:00 10° ESE visible
19 Jun - 02:00:05 10° W 02:12:15 88° N 02:31:43 10° E visible
19 Jun - 04:13:11 10° W 04:29:12 82° NNW 04:49:28 10° ENE visible
19 Jun - 06:28:04 10° WSW 06:46:00 54° NNW 07:03:43 10° NE visible
19 Jun - 08:47:35 10° W 09:00:33 22° NW 09:12:01 10° N daylight
19 Jun - 22:36:25 10° NNW 22:43:22 38° NE 22:54:57 10° E night (unlit)
20 Jun - 00:46:16 10° WNW 00:56:12 80° NNE 01:13:39 10° E visible
20 Jun - 02:58:26 10° W 03:12:06 88° N 03:32:16 10° E visible
20 Jun - 05:12:07 10° WSW 05:29:07 68° NNW 05:48:37 10° NE visible
20 Jun - 07:28:31 10° W 07:44:53 35° NW 08:00:12 10° NNE daylight
20 Jun - 21:25:19 10° N 21:29:58 19° NE 21:36:24 10° E night (unlit)
20 Jun - 23:33:03 10° NW 23:41:06 63° NNE 23:55:39 10° ESE visible
21 Jun - 01:44:13 10° W 01:55:31 89° N 02:14:23 10° E visible
21 Jun - 03:57:00 10° W 04:12:03 79° NNW 04:32:18 10° ENE visible
21 Jun - 06:11:32 10° W 06:28:34 49° NNW 06:46:29 10° NE visible
21 Jun - 08:31:38 10° W 08:43:13 19° NW 08:54:01 10° N daylight
21 Jun - 22:20:31 10° NNW 22:26:56 41° NE 22:37:51 10° E night (unlit)
22 Jun - 00:30:30 10° WNW 00:39:42 83° NNE 00:56:16 10° E visible
22 Jun - 02:42:27 10° W 02:55:13 86° N 03:14:59 10° ENE visible
22 Jun - 04:55:47 10° WSW 05:11:48 63° NNW 05:31:21 10° NE visible
22 Jun - 07:12:09 10° W 07:27:28 31° NW 07:42:39 10° NNE daylight
22 Jun - 21:09:07 10° N 21:13:34 21° NE 21:19:53 10° E night (unlit)
22 Jun - 23:17:18 10° WNW 23:24:43 67° NNE 23:38:21 10° E visible
23 Jun - 01:28:26 10° W 01:38:55 89° N 01:57:00 10° E visible
23 Jun - 03:40:52 10° W 03:54:58 75° NNW 04:14:59 10° ENE visible
23 Jun - 05:55:11 10° W 06:11:10 45° NW 06:29:02 10° NNE visible
23 Jun - 08:16:15 10° WNW 08:25:58 16° NW 08:35:25 10° NNW daylight
23 Jun - 22:04:42 10° NW 22:10:37 44° NNE 22:20:50 10° E night (unlit)
24 Jun - 00:14:49 10° WNW 00:23:19 85° N 00:38:54 10° E visible
24 Jun - 02:26:34 10° W 02:38:25 84° N 02:57:35 10° ENE visible
24 Jun - 04:39:35 10° W 04:54:33 58° NNW 05:13:53 10° NE visible
24 Jun - 06:56:03 10° W 07:10:07 27° NW 07:24:46 10° N daylight
24 Jun - 20:53:02 10° N 20:57:17 22° NE 21:03:24 10° E night (unlit)
24 Jun - 23:01:39 10° WNW 23:08:29 72° NNE 23:21:08 10° E night (unlit)
25 Jun - 01:12:42 10° W 01:22:24 89° N 01:39:37 10° E visible
25 Jun - 03:24:51 10° W 03:37:57 70° NNW 03:57:30 10° ENE visible
25 Jun - 05:39:01 10° W 05:53:52 40° NW 06:11:19 10° NNE visible
25 Jun - 08:01:52 10° WNW 08:08:48 13° NW 08:15:45 10° NNW daylight
25 Jun - 21:48:58 10° NW 21:54:26 48° NNE 22:03:53 10° E night (unlit)
25 Jun - 23:59:11 10° W 00:07:02 87° N 00:21:35 10° E visible
26 Jun - 02:10:42 10° W 02:21:42 81° NNW 02:40:08 10° ENE visible
26 Jun - 04:23:30 10° W 04:37:24 52° NNW 04:56:14 10° NE visible
26 Jun - 06:40:17 10° W 06:52:52 23° NW 07:06:29 10° N visible
26 Jun - 20:37:03 10° NNW 20:41:06 24° NE 20:46:56 10° E night (unlit)
26 Jun - 22:46:03 10° WNW 22:52:21 76° NNE 23:03:59 10° E night (unlit)
